Location: Bay Creek Structure Number 5 Dam
(37.4851°N, 88.6884°W)
Time: 18:34:06
(UTC+00:00)

STARLINK-35 - Pass Details

Date: 13 October 2019
Orbit: 548 x 551 km, 53.0° (Epoch: 17 November)

Event Time Altitude Azimuth Distance (km) Brightness Sun altitude
Rises 23:47:49 0° 238° (WSW) 2,703 8.4 -6.2°
Reaches altitude 10° 23:50:05 10° 243° (WSW) 1,813 7.6 -6.6°
Maximum altitude 23:54:07 55° 321° (NW) 663 4.3 -7.4°
Drops below altitude 10° 23:58:12 10° 40° (NE) 1,823 5.9 -8.2°
Enters shadow 23:59:38 - 44° (NE) 2,385 6.4 -8.5°
